Location: The Saddle
(36.8333°N, 80.3417°W)
Time: 10:42:55
(UTC-05:00)

Vanguard 1 Rocket - Visible Passes

Search period start: 02 December 2023 00:00
Search period end: 12 December 2023 00:00
Orbit: 656 x 4218 km, 34.3° (Epoch: 01 December)

Date Brightness Start Highest point End Pass type
(mag) Time Alt. Az. Time Alt. Az. Time Alt. Az.
02 Dec 11.1 02:57:31 10° SSW 03:16:56 30° SE 03:30:36 10° E visible
02 Dec 10.1 05:25:28 10° SW 05:46:39 58° SSE 05:57:59 10° E visible
03 Dec 11.5 01:46:50 10° S 02:02:42 21° SE 02:15:38 10° E visible
03 Dec 10.5 04:10:36 10° SW 04:32:51 48° SSE 04:46:12 10° E visible
03 Dec 9.6 06:42:29 10° WSW 07:01:57 74° S 07:11:38 10° E visible
04 Dec 11.8 00:42:02 10° SSE 00:48:28 11° SE 00:54:34 10° ESE visible
04 Dec 10.9 02:59:20 14° SSW 03:18:39 37° SSE 03:33:34 10° E visible
04 Dec 10.0 05:26:26 10° WSW 05:48:35 65° SSE 06:00:22 10° E visible
05 Dec 11.3 01:55:23 22° SSE 02:04:17 27° SE 02:19:29 10° E visible
05 Dec 10.4 04:12:54 13° SW 04:34:38 56° SSE 04:48:38 10° E visible
05 Dec 9.6 06:43:58 10° WSW 07:04:03 78° S 07:13:59 10° E visible
06 Dec 11.6 00:50:08 17° SE 00:50:08 17° SE 01:02:23 10° ESE visible
06 Dec 10.7 03:07:35 28° SSW 03:20:16 45° SSE 03:36:12 10° E visible
06 Dec 9.9 05:27:36 10° WSW 05:50:31 72° SSE 06:02:41 10° E visible
07 Dec 11.1 02:01:39 32° SSE 02:05:45 34° SE 02:22:37 10° E visible
07 Dec 10.3 04:19:03 24° SW 04:36:24 63° SSE 04:50:57 10° E visible
07 Dec 9.6 06:45:33 10° W 07:06:06 81° S 07:16:18 10° E visible
08 Dec 11.4 00:55:21 22° ESE 00:55:21 22° ESE 01:07:00 10° E visible
08 Dec 10.6 03:12:42 40° SSW 03:21:49 52° SSE 03:38:36 10° E visible
08 Dec 9.9 05:30:03 12° WSW 05:52:27 77° S 06:04:58 10° E visible
09 Dec 10.9 02:06:04 41° SSE 02:07:06 41° SE 02:25:19 10° E visible
09 Dec 10.2 04:23:24 31° SW 04:38:08 70° SSE 04:53:12 10° E visible
09 Dec 9.6 06:47:10 10° W 07:08:08 81° S 07:18:36 10° E visible
10 Dec 11.3 00:59:13 26° ESE 00:59:13 26° ESE 01:10:29 10° E visible
10 Dec 10.5 03:16:32 50° SSW 03:23:21 60° SSE 03:40:52 10° E visible
10 Dec 9.9 05:33:51 16° WSW 05:54:22 80° S 06:07:13 10° E visible
10 Dec 11.8 23:52:12 10° E 23:52:12 10° E 23:52:32 10° E visible
11 Dec 10.7 02:09:30 48° SE 02:09:30 48° SE 02:27:44 10° E visible
11 Dec 10.2 04:26:48 37° WSW 04:39:53 75° SSE 04:55:24 10° E visible
11 Dec 9.7 06:48:48 10° W 07:10:09 80° S 07:20:51 10° ESE visible
